This is the latest recevied weather packets stored in our database for station/object KB9PVH-3. If no packets are shown the sender has not sent any weather packets the latest 10 day(s).
| Time | Temp. | Humidity | Pressure | Rain* | Wind** | Luminosity | Snow |
|---|---|---|---|---|---|---|---|
| 1777992546 | 10° C | 47% | 1010.1 hPa | 0 mm | - | - | - |
| 1777991499 | 10.56° C | 48% | 1010.3 hPa | 0 mm | - | - | - |
| 1777990444 | 10.56° C | 48% | 1010.2 hPa | 0 mm | - | - | - |
| 1777989396 | 10.56° C | 48% | 1010.3 hPa | 0 mm | - | - | - |
| 1777988346 | 10° C | 49% | 1010.3 hPa | 0 mm | - | - | - |
| 1777987296 | 8.89° C | 51% | 1010.4 hPa | 0 mm | - | - | - |
| 1777986254 | 8.33° C | 55% | 1010.6 hPa | 0 mm | - | - | - |
| 1777984144 | 7.78° C | 59% | 1010.3 hPa | 0 mm | - | - | - |
| 1777982044 | 5.56° C | 61% | 1009.3 hPa | 0 mm | - | - | - |
| 1777980994 | 5.56° C | 56% | 1008.6 hPa | 0 mm | - | - | - |
| 1777979944 | 5° C | 57% | 1008.7 hPa | 0 mm | - | - | - |
| 1777978894 | 5° C | 58% | 1008.6 hPa | 0 mm | - | - | - |
| 1777976794 | 5.56° C | 56% | 1008.4 hPa | 0 mm | - | - | - |
| 1777975746 | 6.11° C | 55% | 1008.3 hPa | 0 mm | - | - | - |
| 1777974694 | 6.11° C | 55% | 1008.2 hPa | 0 mm | - | - | - |
| 1777973644 | 6.11° C | 55% | 1008.5 hPa | 0 mm | - | - | - |
| 1777972594 | 6.11° C | 55% | 1008.2 hPa | 0 mm | - | - | - |
| 1777971544 | 6.67° C | 55% | 1007.9 hPa | 0 mm | - | - | - |
| 1777970494 | 6.67° C | 53% | 1007.6 hPa | 0 mm | - | - | - |
| 1777969444 | 7.22° C | 54% | 1007 hPa | 0 mm | - | - | - |
| 1777968394 | 7.22° C | 55% | 1006.5 hPa | 0 mm | - | - | - |
| 1777967344 | 7.78° C | 56% | 1006.3 hPa | 0 mm | - | - | - |
| 1777966294 | 7.78° C | 54% | 1006.6 hPa | 0 mm | - | - | - |
| 1777964196 | 8.89° C | 54% | 1005.9 hPa | 0 mm | - | - | - |
| 1777963144 | 8.89° C | 54% | 1005.6 hPa | 0 mm | - | - | - |
* Rain latest hour (hover to see other rain measurements)
** Current wind speed in m/s (hover to see current wind gust speed)